Regional Weather Roundup
Issued by NWS Boston, MA

Home | Current Version | Previous Version | Text Only | Print | Product List | Glossary On
Versions: 1 2 3 4 5 6 7 8 9 10 11 12 13 14 15 16 17 18 19 20 21 22 23 24 25 26 27 28 29 30 31 32 33 34 35 36 37 38 39 40 41 42 43 44 45 46 47 48 49 50
000
ASUS41 KBOX 061210
RWRBOX

REGIONAL WEATHER ROUNDUP
NATIONAL WEATHER SERVICE TAUNTON MA
800 AM EDT WED MAY 06 2015

NOTE:  "FAIR" INDICATES FEW OR NO CLOUDS BELOW 12,000 FEET WITH NO
SIGNIFICANT WEATHER AND/OR OBSTRUCTIONS TO VISIBILITY.  THE FOLLOWING
OBSERVATION LOCATIONS DO NOT REPORT PRESENT WEATHER...PROVINCETOWN...
SMITHFIELD...BLOCK ISLAND...KEENE...AND OXFORD.

MAZALL-061300-
EASTERN MASSACHUSETTS

CITY           SKY/WX    TMP DP  RH WIND       PRES   REMARKS
BOSTON         CLOUDY    62  40  44 N6        30.30R
6HR MIN TEMP:  52; 6HR MAX TEMP:  62;

BEVERLY        CLOUDY    62  39  42 NW5       30.29R
LAWRENCE       PTSUNNY   57  49  74 CALM      30.32R
BEDFORD        CLOUDY    58  43  57 N5        30.29R
BLUE HILL        N/A     59  38  45 NE9       30.29R
NORWOOD        CLOUDY    59  44  57 CALM      30.30R
MARSHFIELD     CLOUDY    57  46  67 NE3       30.31R
PLYMOUTH       CLOUDY    56  50  80 NE10      30.29R
TAUNTON        CLOUDY    59  45  59 NE3       30.28R
NEW BEDFORD    CLOUDY    60  50  69 NE6       30.27R
$$

MAZALL-061300-
CAPE COD AND THE ISLANDS

CITY           SKY/WX    TMP DP  RH WIND       PRES   REMARKS
FALMOUTH       CLOUDY    59  50  72 NE9       30.27S
HYANNIS        PTSUNNY   58  51  78 NE7       30.26R
CHATHAM        PTSUNNY   58  50  75 NE7       30.29R
PROVINCETOWN   CLOUDY    55  48  76 NE7       30.29S
NANTUCKET      CLOUDY    58  47  66 NE14      30.27R
MARTHAS VNYRD  CLOUDY   N/A N/A N/A NE13      30.26R
$$

MAZALL-061300-
CENTRAL AND WESTERN MASSACHUSETTS

CITY           SKY/WX    TMP DP  RH WIND       PRES   REMARKS
WORCESTER      CLOUDY    59  29  31 NE7       30.30R
6HR MIN TEMP:  58; 6HR MAX TEMP:  63;

FITCHBURG      CLOUDY    60  40  47 NW5       30.32R
ORANGE         CLOUDY    52  42  69 CALM      30.32R
SPRINGFIELD    CLOUDY    56  43  61 NE3       30.29R
WESTFIELD      CLOUDY    58  41  53 NW5       30.30R
NORTH ADAMS    PTSUNNY   52  45  77 CALM      30.32R
PITTSFIELD     CLOUDY    55  38  52 E3        30.30R
$$

RIZALL-061300-
RHODE ISLAND

CITY           SKY/WX    TMP DP  RH WIND       PRES   REMARKS
PROVIDENCE     CLOUDY    62  41  46 NE10      30.29R
6HR MIN TEMP:  55; 6HR MAX TEMP:  62;

NEWPORT        CLOUDY    60  43  53 NE10      30.27R
BLOCK ISLAND   CLOUDY    54  48  82 NE8       30.27R
SMITHFIELD     CLOUDY    57  36  44 NE9       30.29R
WESTERLY       CLOUDY    62  40  44 NE5       30.28R
$$

CTZALL-061300-
CONNECTICUT

CITY           SKY/WX    TMP DP  RH WIND       PRES   REMARKS
BRADLEY INTL   CLOUDY    62  37  39 N8        30.29R
6HR MIN TEMP:  57; 6HR MAX TEMP:  62;

HARTFORD       CLOUDY    60  38  43 N9        30.29R
BRIDGEPORT     LGT RAIN  63  38  39 N9        30.27R
DANBURY        LGT RAIN  60  38  43 NE3       30.30R
GROTON         LGT RAIN  59  48  67 CALM      30.27R
NEW HAVEN      LGT RAIN  59  42  53 N14       30.27R
CHESTER        NOT AVBL
MERIDEN        CLOUDY    62  35  36 NE6       30.29R
WILLIMANTIC    CLOUDY    64  34  32 NE8       30.28R
OXFORD         CLOUDY    59  34  38 NE9       30.31R
$$

MEZ002-015-021-024-NHZ003-005-008-011-012-014-VTZ005-008-061300-
NORTHERN NEW ENGLAND

CITY           SKY/WX    TMP DP  RH WIND       PRES   REMARKS
PORTLAND ME    MOSUNNY   60  40  47 NW3       30.29R
6HR MIN TEMP:  42; 6HR MAX TEMP:  60;

BANGOR ME      SUNNY     55  36  48 W5        30.26F
CONCORD NH     MOSUNNY   51  39  63 CALM      30.31R
MANCHESTER NH  PTSUNNY   56  36  47 VRB3      30.30R
NASHUA NH      PTSUNNY   56  41  57 N3        30.31R
PORTSMOUTH NH  PTSUNNY   58  40  51 W2        30.29R
JAFFREY NH     PTSUNNY   53  42  66 CALM      30.33R
KEENE NH       PTSUNNY   48  39  71 CALM      30.33S
BURLINGTON VT  SUNNY     52  39  61 CALM      30.31S
MT. WASHINGTON SUNNY     32  23  69 NW36G49     N/A  WCI  16
$$

NYZ052-076-061300-
EASTERN NEW YORK

CITY           SKY/WX    TMP DP  RH WIND       PRES   REMARKS
ALBANY         PTSUNNY   59  41  51 N3        30.32R
6HR MIN TEMP:  53; 6HR MAX TEMP:  59;

NEW YORK CITY  CLOUDY    59  50  72 NE10      30.27R
6HR MIN TEMP:  59; 6HR MAX TEMP:  69; 6HR PCP: TRACE;

$$

ANZALL-061300-
MARINE OBSERVATIONS

STATION/POSITION TIME  TEMP    WIND        PRES    VSBY  WAVE
                       AIR SEA DIR/SP/G                  HT/PER
                 (UTC) (F)     (DEG/KT/KT) (MB)    (MI)  (FT/S)
BOSTON BUOY      1150   51 47   20/  6/  6   N/A           1/10
BUZZARDS BAY     1200           20/ 18/ 19   N/A
NANTUCKET SOUND  1150   51 49   30/ 10/ 12   N/A           1
MASS BAY-STELLWA 1104   52 47  360/  6/  6   N/A    1 7/8  2/11
ISLE OF SHOALS   1200   55     320/  7/  8   N/A
S OF BLOCK IS    1108      48                N/A           3/ 7
$$

......................KEY.........................
  SKY/WX - SKY CONDITION/PRESENT WEATHER
  TMP    - TEMPERATURE IN FAHRENHEIT
  DWPT   - DEWPOINT IN FAHRENHEIT
  RH     - RELATIVE HUMIDITY IN PERCENT
  WIND   - DIRECTION AND SPEED IN MPH
  PRES   - MEAN SEA LEVEL PRESSURE IN INCHES OF HG
  WCI    - WIND CHILL INDEX
  VSB    - VISIBILITY IN MILES
  HX     - HEAT INDEX
  TC     - TEMPERATURE IN CELSIUS
  VRB    - VARIABLE WIND DIRECTION
  N/A    - NOT AVAILABLE


USA.gov is the U.S. government's official web portal to all federal, state and local government web resources and services.